SITRO-AIS 7 (FARTUSHNIY)

Last updated on Mon Sep 21 2026 00:03:45 GMT+0000 (Coordinated Universal Time)

1 57194U 23091AE 26263.56628033 .00006444 00000+0 24460-3 0 9999 2 57194 97.4967 326.8132 0012318 127.7857 232.4499 15.27122181178826
UTC large
Height (km)
Speed (km/s)
/
Latitude / Longitude
Inclination (degrees)
Orbital Period (minutes)
Azimuth
Elevation
Range (km)
Doppler Factor

Next 0 passes for location: London (51.5072 / 0.1276)

No passes found over London.
SITRO-AIS 7 (FARTUSHNIY)